2023/03/21 00:00:00,34.6, 3.4
2023/03/21 00:10:00,34.6, 3.5
2023/03/21 00:20:00,34.6, 3.4
2023/03/21 00:30:00,34.6, 3.9
2023/03/21 00:40:00,34.5, 3.6
2023/03/21 00:50:00,34.6, 3.3
2023/03/21 01:00:00,34.5, 3.7
2023/03/21 01:10:00,34.5, 3.9
2023/03/21 01:20:00,34.5, 3.8
2023/03/21 01:30:00,34.5, 3.7
2023/03/21 01:40:00,34.5, 3.6
2023/03/21 01:50:00,34.6, 3.5
2023/03/21 02:00:00,34.6, 3.6
2023/03/21 02:10:00,34.7, 3.9
2023/03/21 02:20:00,34.7, 4.0
2023/03/21 02:30:00,34.7, 5.0
2023/03/21 02:40:00,34.7, 4.2
2023/03/21 02:50:00,35.0, 4.4
2023/03/21 03:00:00,35.1, 4.2
2023/03/21 03:10:00,34.8, 4.4
2023/03/21 03:20:00,34.6, 3.9
2023/03/21 03:30:00,34.7, 4.0
2023/03/21 03:40:00,34.5, 4.0
2023/03/21 03:50:00,34.4, 3.8
2023/03/21 04:00:00,34.4, 4.1
2023/03/21 04:10:00,34.4, 4.0
2023/03/21 04:20:00,34.5, 4.1
2023/03/21 04:30:00,34.5, 4.2
2023/03/21 04:40:00,34.4, 4.2
2023/03/21 04:50:00,34.3, 3.7
2023/03/21 05:00:00,34.4, 3.8
2023/03/21 05:10:00,34.3, 3.9
2023/03/21 05:20:00,34.3, 4.1
2023/03/21 05:30:00,34.4, 3.9
2023/03/21 05:40:00,34.4, 4.2
2023/03/21 05:50:00,34.3, 4.3
2023/03/21 06:00:00,34.4, 3.9
2023/03/21 06:10:00,34.4, 4.4
2023/03/21 06:20:00,34.2, 4.1
2023/03/21 06:30:00,34.3, 4.3
2023/03/21 06:40:00,34.3, 4.4
2023/03/21 06:50:00,34.3, 4.3
2023/03/21 07:00:00,34.4, 4.6
2023/03/21 07:10:00,34.5, 4.4
2023/03/21 07:20:00,34.1, 4.6
2023/03/21 07:30:00,33.9, 4.2
2023/03/21 07:40:00,33.9, 5.3
2023/03/21 07:50:00,34.3, 4.7
2023/03/21 08:00:00,34.5, 4.7
2023/03/21 08:10:00,34.3, 4.3
2023/03/21 08:20:00,34.1, 4.8
2023/03/21 08:30:00,34.0, 5.0
2023/03/21 08:40:00,33.9, 4.5
2023/03/21 08:50:00,33.7, 5.2
2023/03/21 09:00:00,33.8, 5.2
2023/03/21 09:10:00,33.6, 4.9
2023/03/21 09:20:00,33.6, 5.1
2023/03/21 09:30:00,33.8, 5.0
2023/03/21 09:40:00,34.0, 5.2
2023/03/21 09:50:00,34.2, 5.0
2023/03/21 10:00:00,33.7, 5.3
2023/03/21 10:10:00,33.2, 5.2
2023/03/21 10:20:00,33.0, 5.5
2023/03/21 10:30:00,33.0, 5.6
2023/03/21 10:40:00,33.0, 5.1
2023/03/21 10:50:00,33.1, 5.1
2023/03/21 11:00:00,32.7, 5.0
2023/03/21 11:10:00,31.6, 4.9
2023/03/21 11:20:00,31.7, 5.6
2023/03/21 11:30:00,31.4, 4.9
2023/03/21 11:40:00,31.1, 5.3
2023/03/21 11:50:00,31.1, 5.3
2023/03/21 12:00:00,30.9, 5.5
2023/03/21 12:10:00,31.1, 5.5
2023/03/21 12:20:00,31.2, 5.5
2023/03/21 12:30:00,31.5, 5.7
2023/03/21 12:40:00,31.7, 5.8
2023/03/21 12:50:00,31.4, 5.7
2023/03/21 13:00:00,31.6, 5.6
2023/03/21 13:10:00,31.7, 5.6
2023/03/21 13:20:00,31.6, 5.6
2023/03/21 13:30:00,31.7, 5.4
2023/03/21 13:40:00,31.7, 6.0
2023/03/21 13:50:00,31.7, 6.0
2023/03/21 14:00:00,31.6, 6.0
2023/03/21 14:10:00,31.5, 6.0
2023/03/21 14:20:00,31.4, 6.0
2023/03/21 14:30:00,31.0, 5.8
2023/03/21 14:40:00,30.9, 5.2
2023/03/21 14:50:00,31.0, 5.9
2023/03/21 15:00:00,30.7, 5.8
2023/03/21 15:10:00,30.8, 6.0
2023/03/21 15:20:00,30.7, 5.9
2023/03/21 15:30:00,30.7, 5.3
2023/03/21 15:40:00,30.5, 6.1
2023/03/21 15:50:00,30.5, 6.0
2023/03/21 16:00:00,30.7, 5.7
2023/03/21 16:10:00,30.6, 5.5
2023/03/21 16:20:00,30.5, 5.7
2023/03/21 16:30:00,30.4, 5.5
2023/03/21 16:40:00,30.6, 5.4
2023/03/21 16:50:00,30.9, 5.9
2023/03/21 17:00:00,30.2, 5.7
2023/03/21 17:10:00,30.0, 5.4
2023/03/21 17:20:00,29.9, 5.6
2023/03/21 17:30:00,29.9, 5.7
2023/03/21 17:40:00,29.8, 5.7
2023/03/21 17:50:00,29.9, 5.7
2023/03/21 18:00:00,29.9, 5.7
2023/03/21 18:10:00,29.9, 5.7
2023/03/21 18:20:00,29.9, 5.9
2023/03/21 18:30:00,29.7, 5.9
2023/03/21 18:40:00,29.5, 5.9
2023/03/21 18:50:00,29.5, 5.6
2023/03/21 19:00:00,29.5, 5.3
2023/03/21 19:10:00,29.5, 5.7
2023/03/21 19:20:00,29.5, 5.9
2023/03/21 19:30:00,29.5, 5.7
2023/03/21 19:40:00,29.5, 5.5
2023/03/21 19:50:00,29.4, 5.5
2023/03/21 20:00:00,29.1, 5.5
2023/03/21 20:10:00,29.3, 5.8
2023/03/21 20:20:00,29.5, 5.4
2023/03/21 20:30:00,29.7, 5.5
2023/03/21 20:40:00,29.2, 5.6
2023/03/21 20:50:00,28.8, 5.7
2023/03/21 21:00:00,28.8, 5.7
2023/03/21 21:10:00,28.9, 6.0
2023/03/21 21:20:00,28.9, 5.8
2023/03/21 21:30:00,28.5, 5.8
2023/03/21 21:40:00,28.5, 5.7
2023/03/21 21:50:00,28.5, 5.7
2023/03/21 22:00:00,28.4, 5.7
2023/03/21 22:10:00,28.6, 6.0
2023/03/21 22:20:00,28.5, 5.9
2023/03/21 22:30:00,28.5, 5.8
2023/03/21 22:40:00,28.5, 6.1
2023/03/21 22:50:00,28.4, 6.0
2023/03/21 23:00:00,28.4, 5.7
2023/03/21 23:10:00,28.2, 5.8
2023/03/21 23:20:00,28.5, 5.7
2023/03/21 23:30:00,28.4, 5.7
2023/03/21 23:40:00,28.2, 5.8
2023/03/21 23:50:00,28.3, 5.6
